Date,TemperatureHighF,TemperatureAvgF,TemperatureLowF,DewpointHighF,DewpointAvgF,DewpointLowF,HumidityHigh,HumidityAvg,HumidityLow,PressureMaxIn,PressureMinIn,WindSpeedMaxMPH,WindSpeedAvgMPH,GustSpeedMaxMPH,PrecipitationSumIn
2013-3-1,55.0,42.7,30.9,34.3,29.6,27.0,88,62,39,29.75,29.63,4,1,0,0.00
2013-3-2,46.6,37.8,29.5,41.7,32.7,28.0,98,82,65,29.73,29.64,5,1,0,0.04
2013-3-3,48.6,37.8,28.4,29.0,25.7,22.4,95,64,37,29.81,29.67,6,1,0,0.00
2013-3-4,58.1,40.7,24.4,33.3,23.7,16.9,95,56,20,29.97,29.80,5,1,0,0.00
2013-3-5,68.7,52.7,36.9,56.9,43.1,31.7,98,71,50,29.86,29.45,7,2,0,0.04
2013-3-6,50.9,42.4,35.2,36.7,26.9,22.0,76,55,40,29.90,29.54,9,4,0,0.00
2013-3-7,60.4,42.8,27.9,34.1,30.3,26.6,96,65,34,30.02,29.91,5,1,0,0.00
2013-3-8,62.2,46.3,34.3,33.3,26.5,19.2,76,50,19,30.09,29.95,8,2,0,0.00
2013-3-9,67.1,49.8,36.9,37.1,30.5,25.9,72,50,25,30.12,29.99,5,1,0,0.00
2013-3-10,71.2,54.9,39.6,48.3,40.7,35.3,88,63,29,30.06,29.91,7,1,0,0.00
2013-3-11,71.2,59.0,46.0,55.8,48.3,38.8,81,68,51,29.95,29.60,7,2,0,0.00
2013-3-12,70.5,60.5,53.1,58.9,50.7,36.9,99,74,39,29.76,29.53,5,2,0,0.29
2013-3-13,63.3,51.4,38.5,36.5,29.8,22.5,81,47,23,29.95,29.77,10,2,0,0.00
2013-3-14,57.4,43.3,29.8,30.3,22.9,18.9,73,47,25,30.11,29.95,6,1,0,0.00
2013-3-15,73.8,51.9,32.2,40.5,33.0,21.7,86,53,29,30.02,29.77,6,1,0,0.00
2013-3-16,79.7,64.3,51.3,45.7,42.8,39.9,74,48,26,29.81,29.62,8,2,0,0.00
2013-3-17,76.1,63.5,52.2,54.2,50.4,44.8,90,64,40,29.80,29.70,5,1,0,0.00
2013-3-18,69.3,59.1,48.2,61.2,54.7,47.7,99,86,72,29.83,29.58,7,1,0,0.92
2013-3-19,74.8,57.8,49.3,52.8,42.2,23.2,99,66,16,29.81,29.62,6,1,0,0.02
2013-3-20,63.5,52.8,44.4,33.2,25.3,19.0,55,36,19,29.90,29.62,4,1,0,0.00
2013-3-21,57.6,46.3,36.9,28.0,20.2,11.3,61,38,19,29.73,29.60,6,2,0,0.00
2013-3-22,52.3,42.7,34.2,34.1,23.1,16.5,67,47,32,29.87,29.73,3,1,0,0.00
2013-3-23,55.4,47.2,43.5,52.1,43.2,34.2,99,86,64,29.84,29.67,6,1,0,0.43
2013-3-24,49.3,47.3,44.8,49.0,46.8,44.5,99,98,95,29.68,29.33,7,2,0,1.47
2013-3-25,53.4,44.8,38.5,45.6,29.9,22.6,99,58,34,29.79,29.40,8,4,0,0.00
2013-3-26,51.6,40.8,31.5,28.5,25.9,22.9,78,56,38,30.02,29.78,9,2,0,0.00
2013-3-27,63.0,42.4,27.7,32.3,27.2,24.1,93,59,25,30.11,29.99,4,1,0,0.00
2013-3-28,66.2,45.6,30.7,33.8,26.8,22.4,90,53,20,30.14,30.00,7,1,0,0.00
2013-3-29,70.7,52.5,37.8,36.0,28.8,23.4,69,43,21,30.15,29.99,4,1,0,0.00
2013-3-30,75.7,61.2,49.8,48.5,43.9,34.0,81,55,35,30.02,29.84,5,1,0,0.00
2013-3-31,76.5,64.3,57.2,60.8,55.0,48.1,94,73,45,29.84,29.66,6,2,0,0.01